sat.trackr.live / text

‹ back to catalog

ZHIHUI TIANWANG-1 01B

NORAD 59706 · 2024-087B

PAYLOAD ACTIVE UNKNOWN

§ Identity

Operator
Country
PRC
Launch date
2024-05-09
Launch site
XICLF
Launch vehicle
Mass (kg)
RCS (m²)

External: N2YO · Heavens-Above · Gunter

§ Orbital elements

Epoch: 2026-05-24T04:49:17.023872Z

Period
717.98 min
Inclination
53.1256°
Eccentricity
0.0025948
Mean motion
2.00563279 rev/d
Perigee alt
20,113.3 km
Apogee alt
20,251.2 km
Semi-major
26,560.4 km
B*
0.0000e+0
RAAN
171.5679°
Arg perigee
206.7317°
Mean anomaly
153.1882°
Rev number
1,447

§ Raw data

ZHIHUI TIANWANG-1 01B1 59706U 24087B   26144.20089148  .00000063  00000+0  00000+0 0  99942 59706  53.1256 171.5679 0025948 206.7317 153.1882  2.00563279 14479

JSON: /api/v1/satellites/59706 · /tle

For live sub-satellite position, see the globe view (requires WebGL).

§ Visibility from observer

Set your observer location to see the next 7 days of passes ≥ 10°. The values pass through the URL so the page stays shareable.

No JS? Fill the form by hand. The geolocation button needs JavaScript.